Terminal Aerodrome Forecast
Issued by NWS Mt. Holly, NJ

Home | Current Version | Previous Version | Text Only | Print | Product List | Glossary On
Versions: 1 2 3 4 5 6 7 8 9 10 11 12 13 14 15 16 17 18 19 20 21 22 23 24 25 26 27 28 29
000
FTUS41 KPHI 222300
TAFPHL
TAF
KPHL 222332Z 2300/2406 33010KT P6SM SCT250
     FM230600 34007KT P6SM SCT250
     FM231200 36006KT P6SM SCT250
     FM232000 VRB03KT P6SM FEW060=

USA.gov is the U.S. government's official web portal to all federal, state and local government web resources and services.